SYRACUSE 3A

Last updated on Aug. 10, 2020, 5:33 a.m. UTC

1 28885U 05041B   20222.85049285  .00000127  00000-0  00000-0 0  9990
2 28885   0.0195  99.9712 0002844  25.4048 186.5649  1.00269870 54311
UTC
Height (km)
Latitude
Longitude
Inclination
Orbital Period
UTC large
Height (km)
Speed (km/s)
/
Latitude / Longitude
Inclination (degrees)
Orbital Period (minutes)
Azimuth
Elevation
Range (km)
Doppler Factor
iOS Compass Heading
iOS Angle

Next 30 passes for location: Hong Kong

Rise time Rise Azimuth (degrees) Set time Set Azimuth (degrees) Duration Max altitude (degrees)

No matching passes for this satellites